Home > Weather > Windsor > Past weeks

Flag for Canada Weather for the Past 2 Weeks in Windsor, Ontario, Canada

Now
19 °F

Overcast.


Feels Like: 4 °F
Forecast: 11 / 24 °F
Wind: 17 mph from Southwest

Location: Windsor Weather Station

Current Time: Feb 12, 2016 at 11:15:10 AM

Latest Report: Feb 12, 2016 at 10:00 AM


Visibility: 12 mi

Pressure: 30.07 "Hg

Humidity: 68%

Dew point: 10 °F

Location of WindsorLocation

Historic Weather in Windsor — Graph

°F

Windsor Temperature Yesterday

Maximum temperature yesterday: 19 °F (at 3:00 PM)
Minimum temperature yesterday: 10 °F (at 5:00 AM)
Average temperature yesterday: 15 °F

High & Low Weather Summary for the Past Weeks

 TemperatureHumidityPressure
High55 °F (Feb 3, 11:00 AM)100% (Feb 2, 1:00 AM)30.39 "Hg (Feb 2, 1:00 AM)
Low10 °F (Feb 11, 5:00 AM)43% (Jan 29, 3:00 PM)29.46 "Hg (Feb 3, 6:00 AM)
Average32 °F77%29.90 "Hg
* Reported Jan 28 10:00 AM — Feb 12 10:00 AM, Windsor, Weather by CustomWeather, © 2016

Note: Actual official high and low records may vary slightly from our data, if they occured in-between our weather recording intervals... More about our weather records

Advertising

Windsor Weather History for the Previous 24 Hours

 ConditionsComfort  
Time TempWeatherWind HumidityBarometerVisibility
10:00 AM
Fri, Feb 12
19 °FOvercast.17 mph68%30.07 "Hg12 mi
9:00 AM18 °FOvercast.15 mph68%30.10 "Hg12 mi
8:00 AM18 °FOvercast.17 mph68%30.12 "Hg15 mi
7:00 AM16 °FPassing clouds.13 mph73%30.14 "Hg15 mi
6:00 AM14 °FPassing clouds.10 mph73%30.15 "Hg15 mi
5:00 AM12 °FPassing clouds.7 mph79%30.16 "Hg15 mi
4:00 AM12 °FPassing clouds.6 mph79%30.19 "Hg12 mi
3:00 AM12 °FPassing clouds.8 mph79%30.22 "Hg15 mi
2:00 AM12 °FClear.9 mph79%30.23 "Hg15 mi
1:00 AM14 °FClear.9 mph79%30.25 "Hg15 mi
12:00 AM14 °FClear.9 mph73%30.26 "Hg15 mi
11:00 PM
Thu, Feb 11
14 °FClear.8 mph73%30.27 "Hg15 mi
10:00 PM14 °FClear.7 mph73%30.27 "Hg15 mi
9:00 PM14 °FPassing clouds.8 mph73%30.28 "Hg15 mi
8:00 PM16 °FClear.2 mph62%30.29 "Hg15 mi
7:00 PM16 °FPassing clouds.5 mph53%30.28 "Hg15 mi
6:00 PM19 °FPassing clouds.8 mph45%30.27 "Hg15 mi
4:00 PM19 °FScattered clouds.12 mph49%30.26 "Hg15 mi
3:45 PM19 °FScattered clouds.12 mph49%30.26 "Hg15 mi
3:00 PM19 °FLight mixture of precip. Partly sunny.13 mph49%30.25 "Hg15 mi
2:00 PM18 °FPartly sunny.14 mph53%30.24 "Hg15 mi
1:00 PM18 °FPartly sunny.14 mph49%30.24 "Hg15 mi
12:00 PM16 °FPartly sunny.15 mph57%30.25 "Hg15 mi
11:00 AM16 °FSnow flurries. Partly sunny.15 mph62%30.23 "Hg15 mi
Weather by CustomWeather, © 2016

See weather overviewHow to use our weather pages